Location: Baia de Cri?
(46.1667°N, 22.7167°E)
Time: 23:19:17
(UTC+00:00)

IRS-1D - Pass Details

Date: 15 January 2026
Orbit: 737 x 810 km, 98.8° (Epoch: 13 February)

Event Time Altitude Azimuth Distance (km) Brightness Sun altitude
Rises 03:40:55 0° 14° (NNE) 3,331 6.9 -24.9°
Reaches altitude 10° 03:43:16 10° 15° (NNE) 2,400 6.2 -24.5°
Maximum altitude 03:48:36 86° 106° (ESE) 819 3.5 -23.5°
Drops below altitude 10° 03:53:55 10° 195° (SSW) 2,387 6.0 -22.6°
Sets 03:56:14 0° 195° (SSW) 3,310 6.7 -22.2°
